When you browse on this site, cookies collect data to enhance your experience and personalize the content and advertising you see.
Visit our Privacy Policy to learn more. By continuing to use the site, you agree to this use of cookies and data.
  • In Hungary
  • List of Countries
  • For 7 days
  • Water Temperature
  • Satellite Maps
  • Weather Map
  • News
  • Weather Widgets
  • user-avatar
    Login

    Hourly Weather Kakanj

    Today, 20 April, Saturday

    Time Temperature Precipitation Wind Pressure Humidity
    00:00 +9°C° 0 mm 1 mps 730 mmHg 85%
    01:00 +9°C° 0 mm 1 mps 730 mmHg 85%
    02:00 +9°C° 0 mm 1 mps 730 mmHg 87%
    03:00 +8°C° 0 mm 1 mps 730 mmHg 89%
    04:00 +8°C° 0 mm 1 mps 730 mmHg 91%
    05:00 +9°C° 0 mm 1 mps 730 mmHg 87%
    06:00 +10°C° 0 mm 1 mps 730 mmHg 83%
    07:00 +12°C° 0 mm 1 mps 730 mmHg 79%
    08:00 +13°C° 0 mm 2 mps 730 mmHg 68%
    09:00 +14°C° 0 mm 2 mps 730 mmHg 56%
    10:00 +16°C° 0 mm 3 mps 730 mmHg 44%
    11:00 +16°C° 0 mm 3 mps 730 mmHg 43%
    12:00 +16°C° 0 mm 3 mps 730 mmHg 41%
    13:00 +17°C° 0 mm 3 mps 730 mmHg 40%
    14:00 +17°C° 0 mm 3 mps 730 mmHg 42%
    15:00 +16°C° 0 mm 3 mps 730 mmHg 44%
    16:00 +16°C° 0 mm 3 mps 729 mmHg 46%
    17:00 +14°C° 0 mm 2 mps 729 mmHg 55%
    18:00 +12°C° 0 mm 2 mps 729 mmHg 63%
    19:00 +10°C° 0 mm 1 mps 729 mmHg 71%
    20:00 +9°C° 0 mm 1 mps 729 mmHg 73%
    21:00 +8°C° 0 mm 0 mps 729 mmHg 76%
    22:00 +7°C° 0 mm 0 mps 730 mmHg 78%
    23:00 +7°C° 0 mm 0 mps 729 mmHg 78%

    Tomorrow, 21 April, Sunday

    Time Temperature Precipitation Wind Pressure Humidity
    00:00 +6°C° 0 mm 0 mps 729 mmHg 79%
    01:00 +6°C° 0 mm 0 mps 729 mmHg 80%
    02:00 +7°C° 0 mm 1 mps 729 mmHg 81%
    03:00 +6°C° 0 mm 1 mps 728 mmHg 82%
    04:00 +6°C° 0 mm 1 mps 728 mmHg 83%
    05:00 +8°C° 0 mm 1 mps 728 mmHg 77%
    06:00 +9°C° 0 mm 1 mps 728 mmHg 71%
    07:00 +11°C° 0 mm 1 mps 728 mmHg 64%
    08:00 +14°C° 0 mm 1 mps 728 mmHg 55%
    09:00 +16°C° 0 mm 1 mps 728 mmHg 46%
    10:00 +20°C° 0 mm 1 mps 728 mmHg 36%
    11:00 +19°C° 0 mm 0 mps 728 mmHg 33%
    12:00 +20°C° 0 mm 0 mps 728 mmHg 30%
    13:00 +21°C° 0 mm 0 mps 727 mmHg 28%
    14:00 +21°C° 0 mm 0 mps 727 mmHg 28%
    15:00 +20°C° 0 mm 0 mps 726 mmHg 28%
    16:00 +21°C° 0 mm 1 mps 726 mmHg 29%
    17:00 +19°C° 0 mm 1 mps 725 mmHg 38%
    18:00 +14°C° 0 mm 0 mps 725 mmHg 48%
    19:00 +12°C° 0 mm 0 mps 725 mmHg 58%
    20:00 +12°C° 0 mm 1 mps 725 mmHg 63%
    21:00 +11°C° 0 mm 1 mps 725 mmHg 68%
    22:00 +10°C° 0 mm 1 mps 725 mmHg 73%
    23:00 +10°C° 0 mm 1 mps 725 mmHg 78%

    Day after tomorrow, 22 April, Monday

    Time Temperature Precipitation Wind Pressure Humidity
    00:00 +10°C° 0 mm 1 mps 725 mmHg 83%
    01:00 +9°C° 0 mm 1 mps 724 mmHg 88%
    02:00 +9°C° 0 mm 1 mps 724 mmHg 89%
    03:00 +9°C° 0 mm 1 mps 724 mmHg 91%
    04:00 +7°C° 0 mm 2 mps 723 mmHg 92%
    05:00 +9°C° 0 mm 2 mps 723 mmHg 86%
    06:00 +10°C° 0 mm 2 mps 723 mmHg 81%
    07:00 +12°C° 0 mm 2 mps 723 mmHg 75%
    08:00 +14°C° 0 mm 2 mps 723 mmHg 64%
    09:00 +17°C° 0 mm 2 mps 723 mmHg 53%
    10:00 +19°C° 0 mm 2 mps 723 mmHg 41%
    11:00 +20°C° 0 mm 2 mps 722 mmHg 40%
    12:00 +20°C° 0 mm 3 mps 722 mmHg 39%
    13:00 +21°C° 0 mm 3 mps 721 mmHg 37%
    14:00 +20°C° 0 mm 3 mps 721 mmHg 41%
    15:00 +20°C° 0 mm 4 mps 720 mmHg 45%
    16:00 +19°C° 0 mm 4 mps 720 mmHg 49%
    17:00 +17°C° 0 mm 3 mps 719 mmHg 55%
    18:00 +16°C° 0 mm 3 mps 719 mmHg 61%
    19:00 +14°C° 0 mm 2 mps 719 mmHg 68%
    20:00 +13°C° 0.1 mm 2 mps 719 mmHg 71%
    21:00 +13°C° 0.1 mm 2 mps 719 mmHg 74%
    22:00 +12°C° 0.1 mm 2 mps 719 mmHg 77%
    23:00 +12°C° 0.7 mm 2 mps 718 mmHg 82%

    23 April, Tuesday

    Time Temperature Precipitation Wind Pressure Humidity
    00:00 +12°C° 0.7 mm 2 mps 718 mmHg 86%
    01:00 +10°C° 0.7 mm 2 mps 718 mmHg 91%
    02:00 +10°C° 0.2 mm 2 mps 718 mmHg 91%
    03:00 +10°C° 0.2 mm 2 mps 717 mmHg 91%
    04:00 +10°C° 0.2 mm 2 mps 717 mmHg 91%
    05:00 +12°C° 0.2 mm 2 mps 717 mmHg 90%
    06:00 +12°C° 0.2 mm 2 mps 717 mmHg 90%
    07:00 +12°C° 0.2 mm 2 mps 717 mmHg 89%
    08:00 +13°C° 0.2 mm 2 mps 717 mmHg 87%
    09:00 +13°C° 0.2 mm 3 mps 717 mmHg 84%
    10:00 +14°C° 0.2 mm 3 mps 718 mmHg 82%
    11:00 +14°C° 0 mm 3 mps 718 mmHg 80%
    12:00 +15°C° 0 mm 4 mps 718 mmHg 77%
    13:00 +15°C° 0 mm 4 mps 718 mmHg 75%
    14:00 +15°C° 0 mm 4 mps 718 mmHg 73%
    15:00 +17°C° 0 mm 4 mps 718 mmHg 72%
    16:00 +17°C° 0 mm 4 mps 718 mmHg 71%
    17:00 +16°C° 0 mm 3 mps 719 mmHg 76%
    18:00 +14°C° 0 mm 3 mps 719 mmHg 81%
    19:00 +14°C° 0 mm 2 mps 719 mmHg 86%
    20:00 +14°C° 0 mm 2 mps 720 mmHg 87%
    21:00 +14°C° 0 mm 2 mps 720 mmHg 87%
    22:00 +13°C° 0 mm 3 mps 721 mmHg 88%
    23:00 +13°C° 0 mm 3 mps 721 mmHg 87%

    24 April, Wednesday

    Time Temperature Precipitation Wind Pressure Humidity
    00:00 +13°C° 0 mm 3 mps 722 mmHg 87%
    01:00 +13°C° 0 mm 3 mps 722 mmHg 86%
    02:00 +12°C° 0 mm 3 mps 722 mmHg 88%
    03:00 +12°C° 0 mm 3 mps 722 mmHg 90%
    04:00 +11°C° 0 mm 3 mps 722 mmHg 91%
    05:00 +13°C° 0 mm 2 mps 722 mmHg 87%
    06:00 +14°C° 0 mm 2 mps 723 mmHg 82%
    07:00 +15°C° 0 mm 2 mps 723 mmHg 78%
    08:00 +17°C° 0 mm 2 mps 723 mmHg 70%
    09:00 +19°C° 0 mm 2 mps 724 mmHg 63%
    10:00 +21°C° 0 mm 2 mps 724 mmHg 55%
    11:00 +22°C° 0 mm 3 mps 724 mmHg 52%
    12:00 +24°C° 0 mm 3 mps 724 mmHg 49%
    13:00 +25°C° 0 mm 3 mps 724 mmHg 46%
    14:00 +24°C° 0 mm 3 mps 724 mmHg 47%
    15:00 +24°C° 0 mm 3 mps 724 mmHg 48%
    16:00 +24°C° 0 mm 3 mps 724 mmHg 49%
    17:00 +21°C° 0 mm 3 mps 724 mmHg 58%
    18:00 +18°C° 0 mm 2 mps 724 mmHg 66%
    19:00 +16°C° 0 mm 2 mps 724 mmHg 74%
    20:00 +15°C° 0 mm 2 mps 724 mmHg 77%
    21:00 +14°C° 0 mm 2 mps 725 mmHg 80%
    22:00 +13°C° 0 mm 2 mps 725 mmHg 83%
    23:00 +13°C° 0 mm 2 mps 725 mmHg 84%

    25 April, Thursday

    Time Temperature Precipitation Wind Pressure Humidity
    00:00 +13°C° 0 mm 2 mps 725 mmHg 84%
    01:00 +12°C° 0 mm 2 mps 725 mmHg 85%
    02:00 +12°C° 0 mm 2 mps 725 mmHg 86%
    03:00 +12°C° 0 mm 2 mps 724 mmHg 86%
    04:00 +12°C° 0 mm 2 mps 724 mmHg 87%
    05:00 +13°C° 0 mm 2 mps 724 mmHg 83%
    06:00 +15°C° 0 mm 2 mps 724 mmHg 79%
    07:00 +16°C° 0 mm 2 mps 725 mmHg 74%
    08:00 +18°C° 0 mm 2 mps 725 mmHg 65%
    09:00 +21°C° 0 mm 2 mps 724 mmHg 57%
    10:00 +24°C° 0 mm 2 mps 724 mmHg 48%
    11:00 +25°C° 0 mm 2 mps 724 mmHg 48%
    12:00 +25°C° 0 mm 3 mps 724 mmHg 48%
    13:00 +26°C° 0 mm 3 mps 723 mmHg 48%
    14:00 +25°C° 0 mm 3 mps 723 mmHg 48%
    15:00 +25°C° 0 mm 3 mps 722 mmHg 48%
    16:00 +25°C° 0 mm 4 mps 722 mmHg 49%
    17:00 +22°C° 0 mm 3 mps 721 mmHg 55%
    18:00 +20°C° 0 mm 3 mps 721 mmHg 61%
    19:00 +17°C° 0 mm 2 mps 720 mmHg 68%
    20:00 +17°C° 0 mm 2 mps 720 mmHg 68%
    21:00 +16°C° 0 mm 2 mps 720 mmHg 68%
    22:00 +16°C° 0 mm 3 mps 720 mmHg 67%
    23:00 +16°C° 0 mm 3 mps 720 mmHg 67%
    Show more